Photometre #847[NE_1.6_Dp] OHP_OBSERVATOIRE AOT

File : 20200927_847.hum

27/09/2020,06:20:52,TEMP=6.2,BA=5.72,STAT.A,ExtBa=13.40
27/09/2020,06:24:28,TEMP=6.6,BA=5.72,STAT.A,ExtBa=13.40
27/09/2020,06:28:41,TEMP=6.8,BA=5.72,STAT.A,ExtBa=13.30
27/09/2020,06:33:42,TEMP=7.1,BA=5.68,STAT.A,ExtBa=13.20
27/09/2020,06:39:45,TEMP=7.6,BA=5.68,STAT.A,ExtBa=13.20
27/09/2020,06:47:14,TEMP=8.1,BA=5.68,STAT.A,ExtBa=13.30
27/09/2020,06:56:42,TEMP=8.9,BA=5.72,STAT.B,ExtBa=13.30
27/09/2020,07:06:19,TEMP=10.4,BA=5.68,STAT.A,ExtBa=12.70
27/09/2020,07:08:19,TEMP=10.6,BA=5.68,STAT.A,ExtBa=12.70
27/09/2020,07:12:05,TEMP=10.4,BA=5.68,STAT.A,ExtBa=12.80
27/09/2020,07:18:38,TEMP=10.7,BA=5.68,STAT.A,ExtBa=12.90
27/09/2020,07:26:10,TEMP=11.0,BA=5.68,STAT.C,ExtBa=13.00
27/09/2020,07:51:27,TEMP=11.7,BA=5.68,STAT.A,ExtBa=12.70
27/09/2020,07:53:20,TEMP=11.6,BA=5.68,STAT.A,ExtBa=12.80
27/09/2020,07:57:59,TEMP=11.0,BA=5.68,STAT.A,ExtBa=12.90
27/09/2020,08:13:34,TEMP=11.3,BA=5.72,STAT.A,ExtBa=13.20
27/09/2020,08:28:31,TEMP=11.7,BA=5.68,STAT.F,ExtBa=13.20
27/09/2020,08:52:59,TEMP=13.3,BA=5.68,STAT.D,ExtBa=12.70
27/09/2020,08:58:30,TEMP=12.6,BA=5.68,STAT.D,ExtBa=12.90
27/09/2020,09:13:30,TEMP=12.9,BA=5.68,STAT.D,ExtBa=13.20
27/09/2020,09:28:32,TEMP=13.0,BA=5.68,STAT.F,ExtBa=13.20
27/09/2020,09:56:51,TEMP=12.7,BA=5.64,STAT.D,ExtBa=12.90
27/09/2020,09:58:49,TEMP=13.1,BA=5.64,STAT.D,ExtBa=12.90
27/09/2020,10:13:30,TEMP=12.7,BA=5.68,STAT.D,ExtBa=13.20
27/09/2020,10:28:32,TEMP=14.1,BA=5.68,STAT.F,ExtBa=13.20
27/09/2020,10:54:23,TEMP=16.4,BA=5.64,STAT.D,ExtBa=12.70
27/09/2020,10:58:30,TEMP=15.8,BA=5.64,STAT.D,ExtBa=12.80
27/09/2020,11:13:30,TEMP=15.5,BA=5.68,STAT.D,ExtBa=13.10
27/09/2020,11:28:32,TEMP=16.2,BA=5.68,STAT.F,ExtBa=13.20
27/09/2020,11:52:56,TEMP=17.5,BA=5.60,STAT.D,ExtBa=12.60
27/09/2020,11:58:30,TEMP=16.6,BA=5.60,STAT.D,ExtBa=12.90
27/09/2020,12:13:30,TEMP=16.6,BA=5.68,STAT.D,ExtBa=13.10
27/09/2020,12:28:32,TEMP=16.4,BA=5.68,STAT.F,ExtBa=13.20
27/09/2020,12:54:39,TEMP=16.3,BA=5.60,STAT.D,ExtBa=12.70
27/09/2020,12:58:30,TEMP=15.8,BA=5.60,STAT.D,ExtBa=12.80
27/09/2020,13:13:30,TEMP=15.4,BA=5.68,STAT.D,ExtBa=13.10
27/09/2020,13:28:32,TEMP=15.4,BA=5.68,STAT.F,ExtBa=13.20
27/09/2020,13:43:30,TEMP=14.0,BA=5.68,STAT.D,ExtBa=12.90
27/09/2020,13:58:30,TEMP=12.9,BA=5.68,STAT.D,ExtBa=13.20
27/09/2020,14:13:30,TEMP=14.9,BA=5.68,STAT.D,ExtBa=13.20
27/09/2020,14:28:31,TEMP=15.4,BA=5.68,STAT.F,ExtBa=13.20
27/09/2020,14:53:49,TEMP=14.7,BA=5.60,STAT.A,ExtBa=12.60
27/09/2020,14:59:03,TEMP=13.8,BA=5.60,STAT.A,ExtBa=12.90
27/09/2020,15:11:38,TEMP=13.4,BA=5.68,STAT.A,ExtBa=13.10
27/09/2020,15:22:03,TEMP=13.1,BA=5.68,STAT.A,ExtBa=13.20
27/09/2020,15:30:52,TEMP=12.9,BA=5.68,STAT.C,ExtBa=13.20
27/09/2020,15:55:52,TEMP=12.0,BA=5.60,STAT.A,ExtBa=12.70
27/09/2020,15:57:55,TEMP=11.8,BA=5.60,STAT.A,ExtBa=12.70
27/09/2020,15:59:55,TEMP=11.7,BA=5.60,STAT.A,ExtBa=12.70
27/09/2020,16:01:54,TEMP=11.6,BA=5.64,STAT.A,ExtBa=12.70
27/09/2020,16:04:11,TEMP=11.4,BA=5.64,STAT.B,ExtBa=12.60
27/09/2020,16:09:48,TEMP=10.6,BA=5.64,STAT.A,ExtBa=12.90
27/09/2020,16:17:16,TEMP=10.6,BA=5.64,STAT.A,ExtBa=13.00
27/09/2020,16:23:19,TEMP=10.6,BA=5.68,STAT.A,ExtBa=13.10
27/09/2020,16:28:19,TEMP=10.4,BA=5.68,STAT.A,ExtBa=13.10
27/09/2020,16:32:33,TEMP=10.3,BA=5.64,STAT.A,ExtBa=13.00